| time (UTC) | temp C | wind direction | speed KPH | gust KPH | rain 1hr cm | rain 24hr cm | rain mn cm | humidity % | barometer mb |
| 20260507060504 | 10 | 266 | 3.2 | 11.3 | 0.00 | 0.58 | 0.00 | 87 | 1006.6 |
| 20260507060008 | 10 | 300 | 1.6 | 4.8 | 0.00 | 0.58 | 0.00 | 87 | 1006.4 |
| 20260507055504 | 10 | 276 | 1.6 | 4.8 | 0.00 | 0.58 | 0.00 | 87 | 1006.6 |
| 20260507055002 | 11 | 288 | 0.0 | 1.6 | 0.00 | 0.58 | 0.00 | 86 | 1006.5 |
| 20260507054514 | 11 | 288 | 0.0 | 6.4 | 0.00 | 0.58 | 0.00 | 86 | 1006.6 |
| 20260507054008 | 11 | 300 | 0.0 | 6.4 | 0.00 | 0.58 | 0.00 | 85 | 1007.0 |
| 20260507053504 | 11 | 5 | 0.0 | 4.8 | 0.00 | 0.58 | 0.00 | 86 | 1007.1 |
| 20260507053012 | 11 | 254 | 0.0 | 4.8 | 0.00 | 0.58 | 0.00 | 86 | 1007.2 |
| 20260507052507 | 11 | 291 | 1.6 | 4.8 | 0.00 | 0.58 | 0.00 | 87 | 1007.0 |
| 20260507052003 | 11 | 292 | 1.6 | 3.2 | 0.00 | 0.58 | 0.00 | 87 | 1007.2 |
| 20260507051514 | 11 | 282 | 1.6 | 3.2 | 0.00 | 0.58 | 0.00 | 87 | 1007.1 |
| 20260507051012 | 11 | 347 | 0.0 | 3.2 | 0.00 | 0.58 | 0.00 | 87 | 1006.8 |
| 20260507050503 | 11 | 258 | 0.0 | 4.8 | 0.00 | 0.58 | 0.00 | 86 | 1007.1 |
| 20260507050024 | 11 | 290 | 1.6 | 4.8 | 0.00 | 0.58 | 0.00 | 86 | 1007.1 |
| 20260507045508 | 11 | 289 | 1.6 | 3.2 | 0.00 | 0.58 | 0.00 | 87 | 1007.1 |
| 20260507045003 | 11 | 288 | 1.6 | 3.2 | 0.00 | 0.58 | 0.00 | 88 | 1007.0 |
| 20260507044516 | 11 | 320 | 0.0 | 3.2 | 0.00 | 0.58 | 0.00 | 89 | 1006.8 |
| 20260507044007 | 11 | 178 | 0.0 | 3.2 | 0.03 | 0.58 | 0.00 | 89 | 1006.5 |
| 20260507043504 | 11 | 185 | 0.0 | 3.2 | 0.03 | 0.58 | 0.00 | 89 | 1006.5 |
| 20260507043016 | 12 | 285 | 0.0 | 3.2 | 0.03 | 0.58 | 0.00 | 89 | 1006.6 |
| 20260507042507 | 12 | 285 | 0.0 | 3.2 | 0.03 | 0.58 | 0.00 | 88 | 1006.8 |
| 20260507042003 | 12 | 285 | 0.0 | 4.8 | 0.03 | 0.58 | 0.00 | 87 | 1006.6 |
| 20260507041517 | 12 | 285 | 0.0 | 4.8 | 0.03 | 0.58 | 0.00 | 87 | 1006.6 |
| 20260507041007 | 12 | 292 | 1.6 | 4.8 | 0.03 | 0.58 | 0.00 | 86 | 1006.7 |
| 20260507040503 | 12 | 331 | 0.0 | 6.4 | 0.03 | 0.58 | 0.00 | 86 | 1006.6 |
| 20260507040027 | 12 | 290 | 1.6 | 11.3 | 0.03 | 0.58 | 0.00 | 86 | 1006.8 |
| 20260507035502 | 12 | 288 | 4.8 | 11.3 | 0.03 | 0.58 | 0.58 | 85 | 1006.7 |
| 20260507035002 | 12 | 306 | 1.6 | 12.9 | 0.03 | 0.58 | 0.58 | 84 | 1006.7 |
| 20260507034521 | 12 | 244 | 6.4 | 12.9 | 0.03 | 0.58 | 0.58 | 1006.7 | |
| 20260507034002 | 13 | 289 | 3.2 | 14.5 | 0.00 | 0.56 | 0.56 | 1006.5 | |
| 20260507033502 | 13 | 284 | 3.2 | 14.5 | 0.00 | 0.56 | 0.56 | 1006.4 | |
| 20260507033021 | 13 | 261 | 1.6 | 9.7 | 0.00 | 0.56 | 0.56 | 88 | 1006.4 |
| 20260507032501 | 13 | 330 | 3.2 | 6.4 | 0.00 | 0.56 | 0.56 | 88 | 1006.2 |
| 20260507032005 | 13 | 302 | 0.0 | 3.2 | 0.00 | 0.56 | 0.56 | 89 | 1006.2 |
| 20260507031522 | 13 | 302 | 0.0 | 6.4 | 0.00 | 0.56 | 0.56 | 89 | 1006.0 |
| 20260507031003 | 13 | 302 | 1.6 | 11.3 | 0.00 | 0.56 | 0.56 | 88 | 1006.0 |
| 20260507030503 | 14 | 288 | 3.2 | 11.3 | 0.00 | 0.56 | 0.56 | 88 | 1005.9 |
| 20260507030023 | 14 | 290 | 1.6 | 11.3 | 0.00 | 0.56 | 0.56 | 88 | 1005.7 |
| 20260507025503 | 14 | 258 | 3.2 | 14.5 | 0.00 | 0.56 | 0.56 | 89 | 1005.7 |
| 20260507025006 | 15 | 305 | 6.4 | 20.9 | 0.00 | 0.56 | 0.56 | 90 | 1005.7 |
| 20260507024525 | 15 | 307 | 1.6 | 20.9 | 0.00 | 0.56 | 0.56 | 92 | 1005.8 |
| 20260507024002 | 15 | 236 | 6.4 | 11.3 | 0.00 | 0.56 | 0.56 | 92 | 1005.9 |
| 20260507023505 | 15 | 269 | 1.6 | 8.0 | 0.00 | 0.56 | 0.56 | 93 | 1005.8 |
| 20260507023028 | 15 | 288 | 3.2 | 11.3 | 0.00 | 0.56 | 0.56 | 93 | 1005.7 |
| 20260507022510 | 15 | 232 | 4.8 | 11.3 | 0.00 | 0.56 | 0.56 | 93 | 1005.7 |
| 20260507022005 | 15 | 263 | 1.6 | 6.4 | 0.00 | 0.56 | 0.56 | 93 | 1005.8 |
| 20260507021524 | 15 | 256 | 1.6 | 4.8 | 0.00 | 0.56 | 0.56 | 93 | 1005.8 |
| 20260507021002 | 15 | 274 | 0.0 | 3.2 | 0.00 | 0.56 | 0.56 | 93 | 1005.6 |
| 20260507020505 | 14 | 296 | 1.6 | 3.2 | 0.00 | 0.56 | 0.56 | 93 | 1005.5 |
| 20260507020027 | 14 | 144 | 0.0 | 3.2 | 0.00 | 0.56 | 0.56 | 92 | 1005.4 |
| 20260507015503 | 14 | 128 | 0.0 | 3.2 | 0.00 | 0.56 | 0.56 | 92 | 1005.4 |
| 20260507015006 | 15 | 140 | 0.0 | 3.2 | 0.00 | 0.56 | 0.56 | 92 | 1005.5 |
| 20260507014542 | 15 | 140 | 0.0 | 3.2 | 0.00 | 0.56 | 0.56 | 92 | 1005.5 |
| 20260507014004 | 15 | 144 | 0.0 | 3.2 | 0.00 | 0.56 | 0.56 | 92 | 1005.4 |
| 20260507013506 | 15 | 144 | 0.0 | 3.2 | 0.00 | 0.56 | 0.56 | 92 | 1005.4 |
| 20260507013026 | 15 | 128 | 0.0 | 3.2 | 0.00 | 0.56 | 0.56 | 92 | 1005.5 |
| 20260507012503 | 15 | 63 | 0.0 | 3.2 | 0.00 | 0.56 | 0.56 | 92 | 1005.4 |
| 20260507012010 | 15 | 332 | 0.0 | 3.2 | 0.00 | 0.56 | 0.56 | 92 | 1005.4 |
| 20260507011504 | 15 | 71 | 0.0 | 3.2 | 0.00 | 0.56 | 0.56 | 92 | 1005.5 |
| 20260507011010 | 15 | 71 | 0.0 | 3.2 | 0.00 | 0.56 | 0.56 | 92 | 1005.4 |
| 20260507010505 | 15 | 77 | 0.0 | 4.8 | 0.00 | 0.56 | 0.56 | 92 | 1005.4 |
| 20260507010009 | 15 | 61 | 1.6 | 4.8 | 0.00 | 0.56 | 0.56 | 92 | 1005.4 |
| 20260507005505 | 15 | 272 | 0.0 | 11.3 | 0.00 | 0.56 | 0.56 | 92 | 1005.4 |
| 20260507005010 | 15 | 63 | 0.0 | 11.3 | 0.00 | 0.56 | 0.56 | 92 | 1005.5 |
| 20260507004510 | 15 | 169 | 1.6 | 4.8 | 0.00 | 0.56 | 0.56 | 92 | 1005.5 |
| 20260507004010 | 15 | 272 | 0.0 | 4.8 | 0.00 | 0.56 | 0.56 | 92 | 1005.4 |
| 20260507003512 | 15 | 188 | 3.2 | 6.4 | 0.00 | 0.56 | 0.56 | 91 | 1005.3 |
| 20260507003008 | 15 | 240 | 1.6 | 6.4 | 0.00 | 0.56 | 0.56 | 91 | 1005.3 |
| 20260507002506 | 15 | 148 | 1.6 | 12.9 | 0.00 | 0.56 | 0.56 | 91 | 1005.2 |
| 20260507002010 | 15 | 290 | 1.6 | 12.9 | 0.00 | 0.56 | 0.56 | 91 | 1005.1 |
| 20260507001510 | 15 | 92 | 1.6 | 12.9 | 0.00 | 0.56 | 0.56 | 91 | 1005.0 |
| 20260507001007 | 15 | 190 | 1.6 | 12.9 | 0.00 | 0.56 | 0.56 | 91 | 1005.0 |
| 20260507000510 | 15 | 235 | 3.2 | 12.9 | 0.00 | 0.56 | 0.56 | 91 | 1005.0 |
| 20260507000012 | 15 | 142 | 1.6 | 11.3 | 0.00 | 0.56 | 0.56 | 91 | 1005.2 |
| 20260506235507 | 15 | 284 | 4.8 | 9.7 | 0.03 | 0.56 | 0.56 | 91 | 1005.2 |
| 20260506235008 | 15 | 223 | 0.0 | 11.3 | 0.05 | 0.56 | 0.56 | 91 | 1005.1 |
| 20260506234515 | 15 | 204 | 1.6 | 11.3 | 0.08 | 0.56 | 0.56 | 91 | 1005.1 |
| 20260506234009 | 15 | 233 | 3.2 | 6.4 | 0.08 | 0.56 | 0.56 | 91 | 1005.1 |
| 20260506233509 | 15 | 140 | 1.6 | 6.4 | 0.10 | 0.56 | 0.56 | 91 | 1005.0 |
| 20260506233027 | 15 | 207 | 1.6 | 8.0 | 0.10 | 0.56 | 0.56 | 91 | 1005.1 |
| 20260506232506 | 15 | 244 | 1.6 | 8.0 | 0.13 | 0.56 | 0.56 | 91 | 1005.1 |
| 20260506232010 | 15 | 291 | 0.0 | 6.4 | 0.15 | 0.56 | 0.56 | 91 | 1005.1 |
| 20260506231515 | 15 | 242 | 0.0 | 11.3 | 0.15 | 0.56 | 0.56 | 91 | 1005.1 |
| 20260506231008 | 15 | 62 | 3.2 | 11.3 | 0.15 | 0.56 | 0.56 | 91 | 1005.2 |
| 20260506230507 | 15 | 180 | 3.2 | 9.7 | 0.18 | 0.56 | 0.56 | 91 | 1005.1 |
| 20260506230017 | 15 | 263 | 0.0 | 8.0 | 0.18 | 0.56 | 0.56 | 91 | 1005.3 |
| 20260506225508 | 15 | 146 | 3.2 | 8.0 | 0.15 | 0.53 | 0.53 | 91 | 1005.2 |
| 20260506225003 | 15 | 11 | 1.6 | 6.4 | 0.13 | 0.51 | 0.51 | 91 | 1005.3 |
| 20260506224518 | 15 | 246 | 1.6 | 11.3 | 0.10 | 0.48 | 0.48 | 91 | 1005.3 |
| 20260506224006 | 15 | 140 | 1.6 | 9.7 | 0.13 | 0.48 | 0.48 | 91 | 1005.3 |
| 20260506223502 | 15 | 272 | 3.2 | 16.1 | 0.10 | 0.46 | 0.46 | 91 | 1005.4 |
| 20260506223020 | 15 | 205 | 3.2 | 16.1 | 0.13 | 0.46 | 0.46 | 91 | 1005.3 |
| 20260506222506 | 15 | 226 | 1.6 | 9.7 | 0.13 | 0.43 | 0.43 | 90 | 1005.2 |
| 20260506222006 | 15 | 234 | 3.2 | 12.9 | 0.10 | 0.41 | 0.41 | 90 | 1005.2 |
| 20260506221520 | 15 | 157 | 3.2 | 12.9 | 0.10 | 0.41 | 0.41 | 90 | 1005.3 |
| 20260506221014 | 15 | 278 | 4.8 | 17.7 | 0.10 | 0.41 | 0.41 | 90 | 1005.3 |
| 20260506220507 | 15 | 185 | 1.6 | 17.7 | 0.08 | 0.38 | 0.38 | 90 | 1005.4 |
| 20260506220024 | 15 | 263 | 6.4 | 24.1 | 0.08 | 0.38 | 0.38 | 90 | 1005.4 |
| 20260506215511 | 15 | 109 | 8.0 | 24.1 | 0.08 | 0.38 | 0.38 | 90 | 1005.3 |
| 20260506215006 | 15 | 215 | 3.2 | 12.9 | 0.08 | 0.38 | 0.38 | 90 | 1005.4 |
| 20260506214520 | 15 | 214 | 3.2 | 11.3 | 0.10 | 0.38 | 0.38 | 90 | 1005.4 |
| 20260506214009 | 15 | 151 | 4.8 | 12.9 | 0.08 | 0.36 | 0.36 | 90 | 1005.5 |
| 20260506213505 | 15 | 274 | 1.6 | 12.9 | 0.10 | 0.36 | 0.36 | 89 | 1005.5 |
| 20260506213023 | 15 | 238 | 1.6 | 11.3 | 0.10 | 0.33 | 0.33 | 89 | 1005.4 |
| 20260506212509 | 15 | 289 | 1.6 | 11.3 | 0.08 | 0.30 | 0.30 | 89 | 1005.4 |
| 20260506212006 | 15 | 74 | 3.2 | 11.3 | 0.10 | 0.30 | 0.30 | 89 | 1005.5 |
| 20260506211524 | 15 | 263 | 4.8 | 14.5 | 0.10 | 0.30 | 0.30 | 89 | 1005.6 |
| 20260506211010 | 15 | 16 | 3.2 | 14.5 | 0.10 | 0.30 | 0.30 | 89 | 1005.6 |
| 20260506210506 | 15 | 74 | 1.6 | 19.3 | 0.13 | 0.30 | 0.30 | 89 | 1005.7 |
| 20260506210028 | 15 | 190 | 4.8 | 20.9 | 0.13 | 0.30 | 0.30 | 89 | 1005.8 |
| 20260506205511 | 15 | 132 | 6.4 | 20.9 | 0.15 | 0.30 | 0.30 | 90 | 1005.8 |
| 20260506205007 | 15 | 127 | 1.6 | 12.9 | 0.15 | 0.30 | 0.30 | 89 | 1005.8 |
| 20260506204525 | 15 | 81 | 1.6 | 11.3 | 0.13 | 0.28 | 0.28 | 89 | 1005.9 |
| 20260506204009 | 15 | 75 | 1.6 | 12.9 | 0.13 | 0.28 | 0.28 | 89 | 1006.0 |
| 20260506203508 | 15 | 298 | 1.6 | 12.9 | 0.10 | 0.25 | 0.25 | 89 | 1006.0 |
| 20260506203023 | 15 | 262 | 3.2 | 11.3 | 0.08 | 0.23 | 0.23 | 88 | 1006.1 |
| 20260506202502 | 15 | 235 | 3.2 | 14.5 | 0.08 | 0.23 | 0.23 | 88 | 1006.0 |
| 20260506202008 | 16 | 238 | 3.2 | 20.9 | 0.05 | 0.20 | 0.20 | 87 | 1006.0 |
| 20260506201526 | 16 | 271 | 4.8 | 20.9 | 0.05 | 0.20 | 0.20 | 87 | 1006.1 |
| 20260506201003 | 16 | 160 | 4.8 | 17.7 | 0.05 | 0.20 | 0.20 | 87 | 1006.0 |
| 20260506200510 | 16 | 189 | 3.2 | 11.3 | 0.03 | 0.18 | 0.18 | 87 | 1006.0 |
| 20260506200025 | 16 | 157 | 3.2 | 16.1 | 0.03 | 0.18 | 0.18 | 86 | 1006.1 |
| 20260506195509 | 16 | 168 | 1.6 | 16.1 | 0.00 | 0.15 | 0.15 | 85 | 1006.1 |
| 20260506195006 | 16 | 238 | 9.7 | 14.5 | 0.03 | 0.15 | 0.15 | 86 | 1006.2 |
| 20260506194527 | 16 | 149 | 1.6 | 11.3 | 0.03 | 0.15 | 0.15 | 86 | 1006.2 |
| 20260506194007 | 16 | 314 | 4.8 | 11.3 | 0.05 | 0.15 | 0.15 | 85 | 1006.2 |
| 20260506193511 | 16 | 317 | 1.6 | 12.9 | 0.05 | 0.15 | 0.15 | 85 | 1006.2 |
| 20260506193031 | 16 | 222 | 4.8 | 19.3 | 0.08 | 0.15 | 0.15 | 85 | 1006.1 |
| 20260506192508 | 16 | 10 | 8.0 | 19.3 | 0.08 | 0.15 | 0.15 | 85 | 1006.1 |
| 20260506192010 | 16 | 67 | 4.8 | 19.3 | 0.10 | 0.15 | 0.15 | 86 | 1006.1 |
| 20260506191528 | 16 | 229 | 4.8 | 19.3 | 0.10 | 0.15 | 0.15 | 87 | 1006.1 |
| 20260506191010 | 16 | 295 | 1.6 | 8.0 | 0.10 | 0.15 | 0.15 | 88 | 1006.2 |
| 20260506190509 | 16 | 262 | 1.6 | 8.0 | 0.15 | 0.15 | 0.15 | 87 | 1006.1 |
| 20260506190008 | 16 | 190 | 0.0 | 4.8 | 0.15 | 0.15 | 0.15 | 87 | 1006.0 |
| 20260506185506 | 16 | 200 | 0.0 | 11.3 | 0.15 | 0.15 | 0.15 | 85 | 1006.1 |
| 20260506185009 | 16 | 265 | 3.2 | 11.3 | 0.13 | 0.13 | 0.13 | 85 | 1006.2 |
| 20260506184511 | 16 | 271 | 3.2 | 11.3 | 0.13 | 0.13 | 0.13 | 85 | 1006.3 |
| 20260506184006 | 17 | 237 | 4.8 | 20.9 | 0.10 | 0.10 | 0.10 | 83 | 1006.3 |
| 20260506183507 | 17 | 278 | 6.4 | 20.9 | 0.10 | 0.10 | 0.10 | 82 | 1006.5 |
| 20260506183013 | 17 | 302 | 8.0 | 17.7 | 0.08 | 0.08 | 0.08 | 81 | 1006.4 |
| 20260506182506 | 17 | 225 | 8.0 | 16.1 | 0.08 | 0.08 | 0.08 | 82 | 1006.5 |
| 20260506182009 | 17 | 244 | 1.6 | 12.9 | 0.05 | 0.05 | 0.05 | 82 | 1006.8 |
| 20260506181512 | 17 | 245 | 4.8 | 12.9 | 0.05 | 0.05 | 0.05 | 80 | 1006.8 |
| 20260506181010 | 18 | 282 | 3.2 | 17.7 | 0.05 | 0.05 | 0.05 | 77 | 1006.8 |
| 20260506180506 | 18 | 224 | 9.7 | 17.7 | 0.00 | 0.00 | 0.00 | 72 | 1007.0 |
| 20260506180012 | 19 | 294 | 4.8 | 16.1 | 0.00 | 0.00 | 0.00 | 67 | 1006.8 |
| 20260506175507 | 20 | 249 | 8.0 | 16.1 | 0.00 | 0.00 | 0.00 | 64 | 1006.8 |
| 20260506175003 | 20 | 275 | 3.2 | 11.3 | 0.00 | 0.00 | 0.00 | 61 | 1006.7 |
| 20260506174529 | 20 | 229 | 3.2 | 17.7 | 0.00 | 0.00 | 0.00 | 60 | 1006.7 |
| 20260506174010 | 21 | 274 | 4.8 | 19.3 | 0.00 | 0.00 | 0.00 | 59 | 1006.6 |
| 20260506173502 | 21 | 261 | 11.3 | 27.4 | 0.00 | 0.00 | 0.00 | 59 | 1006.5 |
| 20260506173016 | 21 | 211 | 14.5 | 30.6 | 0.00 | 0.00 | 0.00 | 57 | 1006.5 |
| 20260506172506 | 21 | 271 | 14.5 | 43.5 | 0.00 | 0.00 | 0.00 | 57 | 1006.6 |
| 20260506172008 | 21 | 262 | 6.4 | 43.5 | 0.00 | 0.00 | 0.00 | 58 | 1006.5 |
| 20260506171521 | 21 | 205 | 11.3 | 24.1 | 0.00 | 0.00 | 0.00 | 56 | 1006.4 |
| 20260506171006 | 21 | 283 | 6.4 | 20.9 | 0.00 | 0.00 | 0.00 | 55 | 1006.4 |
| 20260506170505 | 21 | 324 | 6.4 | 19.3 | 0.00 | 0.00 | 0.00 | 58 | 1006.4 |
| 20260506170026 | 22 | 254 | 8.0 | 19.3 | 0.00 | 0.00 | 0.00 | 57 | 1006.6 |
| 20260506165513 | 21 | 284 | 9.7 | 17.7 | 0.00 | 0.00 | 0.00 | 56 | 1006.6 |
| 20260506165003 | 22 | 160 | 9.7 | 17.7 | 0.00 | 0.00 | 0.00 | 58 | 1006.7 |
| 20260506164518 | 21 | 321 | 4.8 | 14.5 | 0.00 | 0.00 | 0.00 | 58 | 1006.8 |
| 20260506164011 | 21 | 110 | 6.4 | 17.7 | 0.00 | 0.00 | 0.00 | 57 | 1006.8 |
| 20260506163503 | 21 | 228 | 8.0 | 17.7 | 0.00 | 0.00 | 0.00 | 60 | 1007.1 |
| 20260506163041 | 21 | 218 | 6.4 | 19.3 | 0.00 | 0.00 | 0.00 | 59 | 1006.9 |
| 20260506162512 | 21 | 352 | 8.0 | 19.3 | 0.00 | 0.00 | 0.00 | 59 | 1007.1 |
| 20260506162005 | 21 | 85 | 6.4 | 12.9 | 0.00 | 0.00 | 0.00 | 62 | 1007.1 |
| 20260506161524 | 21 | 240 | 3.2 | 12.9 | 0.00 | 0.00 | 0.00 | 62 | 1007.3 |
| 20260506161010 | 21 | 252 | 1.6 | 14.5 | 0.00 | 0.00 | 0.00 | 62 | 1007.2 |
| 20260506160506 | 20 | 296 | 6.4 | 14.5 | 0.00 | 0.00 | 0.00 | 65 | 1007.3 |
| 20260506160024 | 21 | 234 | 3.2 | 12.9 | 0.00 | 0.00 | 0.00 | 61 | 1007.5 |
| 20260506155503 | 20 | 279 | 6.4 | 12.9 | 0.00 | 0.00 | 0.00 | 63 | 1007.6 |
| 20260506155010 | 20 | 231 | 1.6 | 16.1 | 0.00 | 0.00 | 0.00 | 65 | 1007.7 |
| 20260506154526 | 20 | 117 | 4.8 | 16.1 | 0.00 | 0.00 | 0.00 | 64 | 1007.7 |
| 20260506154008 | 20 | 174 | 3.2 | 14.5 | 0.00 | 0.00 | 0.00 | 64 | 1007.9 |
| 20260506153506 | 20 | 203 | 3.2 | 14.5 | 0.00 | 0.00 | 0.00 | 64 | 1008.0 |
| 20260506153028 | 20 | 248 | 8.0 | 14.5 | 0.00 | 0.00 | 0.00 | 66 | 1008.1 |
| 20260506152505 | 20 | 303 | 3.2 | 14.5 | 0.00 | 0.00 | 0.00 | 66 | 1008.1 |
| 20260506152014 | 20 | 313 | 3.2 | 14.5 | 0.00 | 0.00 | 0.00 | 66 | 1008.3 |
| 20260506151524 | 20 | 283 | 6.4 | 22.5 | 0.00 | 0.00 | 0.00 | 65 | 1008.3 |
| 20260506151004 | 20 | 232 | 6.4 | 22.5 | 0.00 | 0.00 | 0.00 | 65 | 1008.5 |
| 20260506150506 | 20 | 152 | 8.0 | 20.9 | 0.00 | 0.00 | 0.00 | 65 | 1008.5 |
| 20260506150027 | 20 | 254 | 4.8 | 24.1 | 0.00 | 0.00 | 0.00 | 66 | 1008.6 |
| 20260506145508 | 20 | 194 | 9.7 | 25.7 | 0.00 | 0.00 | 0.00 | 65 | 1008.3 |
| 20260506145007 | 20 | 319 | 3.2 | 25.7 | 0.00 | 0.00 | 0.00 | 67 | 1008.3 |
| 20260506144527 | 19 | 148 | 8.0 | 19.3 | 0.00 | 0.00 | 0.00 | 66 | 1008.6 |
| 20260506144004 | 19 | 135 | 3.2 | 16.1 | 0.00 | 0.00 | 0.00 | 68 | 1008.6 |
| 20260506143510 | 19 | 124 | 6.4 | 16.1 | 0.00 | 0.00 | 0.00 | 67 | 1008.6 |
| 20260506143033 | 19 | 260 | 8.0 | 14.5 | 0.00 | 0.00 | 0.00 | 67 | 1008.5 |
| 20260506142508 | 19 | 273 | 4.8 | 14.5 | 0.00 | 0.00 | 0.00 | 67 | 1008.5 |
| 20260506142006 | 19 | 238 | 6.4 | 16.1 | 0.00 | 0.00 | 0.00 | 69 | 1008.4 |
| 20260506141526 | 18 | 232 | 4.8 | 16.1 | 0.00 | 0.00 | 0.00 | 68 | 1008.5 |
| 20260506141004 | 19 | 294 | 3.2 | 20.9 | 0.00 | 0.00 | 0.00 | 68 | 1008.3 |
| 20260506140507 | 19 | 261 | 6.4 | 20.9 | 0.00 | 0.00 | 0.00 | 68 | 1008.2 |
| 20260506140026 | 19 | 157 | 1.6 | 16.1 | 0.00 | 0.00 | 0.00 | 68 | 1008.1 |
| 20260506135504 | 19 | 240 | 3.2 | 16.1 | 0.00 | 0.00 | 0.00 | 69 | 1008.2 |
| 20260506135011 | 18 | 122 | 4.8 | 14.5 | 0.00 | 0.00 | 0.00 | 69 | 1008.2 |
| 20260506134526 | 18 | 208 | 1.6 | 11.3 | 0.00 | 0.00 | 0.00 | 69 | 1008.4 |
| 20260506134011 | 18 | 139 | 1.6 | 11.3 | 0.00 | 0.00 | 0.00 | 70 | 1008.2 |
| 20260506133513 | 18 | 215 | 3.2 | 11.3 | 0.00 | 0.00 | 0.00 | 70 | 1008.4 |
| 20260506133032 | 18 | 207 | 3.2 | 14.5 | 0.00 | 0.00 | 0.00 | 71 | 1008.4 |
| 20260506132503 | 18 | 188 | 4.8 | 17.7 | 0.00 | 0.00 | 0.00 | 71 | 1008.6 |
| 20260506132007 | 18 | 200 | 4.8 | 17.7 | 0.00 | 0.00 | 0.00 | 72 | 1008.6 |
| 20260506131529 | 18 | 213 | 8.0 | 16.1 | 0.00 | 0.00 | 0.00 | 70 | 1008.7 |
| 20260506131007 | 18 | 192 | 6.4 | 16.1 | 0.00 | 0.00 | 0.00 | 71 | 1008.8 |
| 20260506130514 | 17 | 184 | 6.4 | 11.3 | 0.00 | 0.00 | 0.00 | 72 | 1008.8 |
| 20260506130014 | 17 | 278 | 1.6 | 16.1 | 0.00 | 0.00 | 0.00 | 72 | 1008.8 |
| 20260506125507 | 17 | 259 | 1.6 | 16.1 | 0.00 | 0.00 | 0.00 | 73 | 1008.8 |
| 20260506125007 | 17 | 247 | 4.8 | 11.3 | 0.00 | 0.00 | 0.00 | 73 | 1008.8 |
| 20260506124514 | 17 | 115 | 4.8 | 25.7 | 0.00 | 0.00 | 0.00 | 72 | 1008.7 |
| 20260506124008 | 17 | 307 | 4.8 | 25.7 | 0.00 | 0.00 | 0.00 | 73 | 1008.8 |
| 20260506123506 | 17 | 323 | 6.4 | 20.9 | 0.00 | 0.00 | 0.00 | 72 | 1008.7 |
| 20260506123032 | 17 | 360 | 6.4 | 20.9 | 0.00 | 0.00 | 0.00 | 72 | 1008.7 |
| 20260506122505 | 17 | 144 | 3.2 | 12.9 | 0.00 | 0.00 | 0.00 | 72 | 1008.5 |
| 20260506122009 | 17 | 223 | 3.2 | 4.8 | 0.00 | 0.00 | 0.00 | 74 | 1008.6 |
| 20260506121515 | 16 | 127 | 3.2 | 12.9 | 0.00 | 0.00 | 0.00 | 75 | 1008.6 |
| 20260506121006 | 16 | 155 | 3.2 | 14.5 | 0.00 | 0.00 | 0.00 | 76 | 1008.8 |
| 20260506120509 | 16 | 260 | 4.8 | 14.5 | 0.00 | 0.00 | 0.00 | 75 | 1009.0 |
| 20260506120018 | 16 | 225 | 4.8 | 11.3 | 0.00 | 0.00 | 0.00 | 75 | 1008.8 |
| 20260506115509 | 16 | 290 | 3.2 | 12.9 | 0.00 | 0.00 | 0.00 | 74 | 1008.8 |
| 20260506115008 | 16 | 203 | 4.8 | 12.9 | 0.00 | 0.00 | 0.00 | 76 | 1008.7 |
| 20260506114522 | 16 | 327 | 4.8 | 12.9 | 0.00 | 0.00 | 0.00 | 77 | 1008.9 |
| 20260506114011 | 15 | 242 | 4.8 | 12.9 | 0.00 | 0.00 | 0.00 | 77 | 1009.0 |
| 20260506113508 | 15 | 268 | 3.2 | 12.9 | 0.00 | 0.00 | 0.00 | 77 | 1009.0 |
| 20260506113018 | 15 | 71 | 3.2 | 9.7 | 0.00 | 0.00 | 0.00 | 77 | 1009.1 |
| 20260506112514 | 15 | 239 | 1.6 | 11.3 | 0.00 | 0.00 | 0.00 | 77 | 1009.1 |
| 20260506112009 | 15 | 59 | 3.2 | 11.3 | 0.00 | 0.00 | 0.00 | 77 | 1009.1 |
| 20260506111535 | 15 | 238 | 1.6 | 12.9 | 0.00 | 0.00 | 0.00 | 77 | 1009.2 |
| 20260506111007 | 15 | 166 | 3.2 | 17.7 | 0.00 | 0.00 | 0.00 | 77 | 1009.2 |
| 20260506110507 | 15 | 238 | 3.2 | 17.7 | 0.00 | 0.00 | 0.00 | 76 | 1009.3 |
| 20260506110025 | 15 | 182 | 4.8 | 14.5 | 0.00 | 0.00 | 0.00 | 77 | 1009.1 |
| 20260506105509 | 15 | 245 | 4.8 | 14.5 | 0.00 | 0.00 | 0.00 | 76 | 1009.0 |
| 20260506105007 | 15 | 95 | 3.2 | 14.5 | 0.00 | 0.00 | 0.00 | 77 | 1009.0 |
| 20260506104524 | 15 | 252 | 4.8 | 12.9 | 0.00 | 0.00 | 0.00 | 78 | 1009.3 |
| 20260506104008 | 15 | 279 | 3.2 | 6.4 | 0.00 | 0.00 | 0.00 | 78 | 1009.3 |
| 20260506103506 | 15 | 63 | 1.6 | 4.8 | 0.00 | 0.00 | 0.00 | 78 | 1009.3 |
| 20260506103027 | 15 | 121 | 1.6 | 12.9 | 0.00 | 0.00 | 0.00 | 79 | 1009.2 |
| 20260506102507 | 14 | 217 | 8.0 | 12.9 | 0.00 | 0.00 | 0.00 | 79 | 1009.2 |
| 20260506102010 | 14 | 145 | 3.2 | 9.7 | 0.00 | 0.00 | 0.00 | 79 | 1009.2 |
| 20260506101524 | 14 | 222 | 3.2 | 8.0 | 0.00 | 0.00 | 0.00 | 78 | 1009.2 |
| 20260506101006 | 15 | 210 | 1.6 | 9.7 | 0.00 | 0.00 | 0.00 | 78 | 1009.1 |
| 20260506100506 | 15 | 264 | 1.6 | 11.3 | 0.00 | 0.00 | 0.00 | 78 | 1009.2 |
| 20260506100008 | 15 | 146 | 1.6 | 11.3 | 0.00 | 0.00 | 0.00 | 78 | 1009.3 |
| 20260506095511 | 15 | 78 | 1.6 | 8.0 | 0.00 | 0.00 | 0.00 | 78 | 1009.2 |
| 20260506095009 | 14 | 76 | 3.2 | 8.0 | 0.00 | 0.00 | 0.00 | 77 | 1009.1 |
| 20260506094506 | 15 | 60 | 1.6 | 9.7 | 0.00 | 0.00 | 0.00 | 77 | 1009.0 |
| 20260506094002 | 15 | 180 | 1.6 | 9.7 | 0.00 | 0.00 | 0.00 | 77 | 1009.1 |
| 20260506093506 | 15 | 251 | 1.6 | 8.0 | 0.00 | 0.00 | 0.00 | 78 | 1009.0 |
| 20260506093005 | 15 | 200 | 1.6 | 4.8 | 0.00 | 0.00 | 0.00 | 78 | 1009.0 |
| 20260506092503 | 14 | 336 | 1.6 | 6.4 | 0.00 | 0.00 | 0.00 | 78 | 1008.8 |
| 20260506092007 | 14 | 74 | 1.6 | 6.4 | 0.00 | 0.00 | 0.00 | 78 | 1009.0 |
| 20260506091527 | 14 | 186 | 1.6 | 11.3 | 0.00 | 0.00 | 0.00 | 78 | 1009.2 |
| 20260506091003 | 15 | 126 | 3.2 | 14.5 | 0.00 | 0.00 | 0.00 | 77 | 1009.0 |
| 20260506090506 | 15 | 159 | 4.8 | 14.5 | 0.00 | 0.00 | 0.00 | 77 | 1009.0 |
| 20260506090010 | 15 | 333 | 0.0 | 6.4 | 0.00 | 0.00 | 0.00 | 77 | 1009.1 |
| 20260506085503 | 15 | 140 | 1.6 | 6.4 | 0.00 | 0.00 | 0.00 | 77 | 1009.1 |
| 20260506085003 | 15 | 213 | 1.6 | 8.0 | 0.00 | 0.00 | 0.00 | 77 | 1009.0 |
| 20260506084506 | 14 | 202 | 1.6 | 8.0 | 0.00 | 0.00 | 0.00 | 77 | 1009.1 |
| 20260506084005 | 14 | 152 | 3.2 | 6.4 | 0.00 | 0.00 | 0.00 | 77 | 1009.1 |
| 20260506083502 | 14 | 160 | 1.6 | 8.0 | 0.00 | 0.00 | 0.00 | 77 | 1009.1 |
| 20260506083012 | 15 | 276 | 1.6 | 6.4 | 0.00 | 0.00 | 0.00 | 76 | 1009.1 |
| 20260506082507 | 15 | 214 | 1.6 | 6.4 | 0.00 | 0.00 | 0.00 | 76 | 1009.1 |
| 20260506082008 | 15 | 275 | 1.6 | 6.4 | 0.00 | 0.00 | 0.00 | 75 | 1009.1 |
| 20260506081512 | 15 | 116 | 1.6 | 6.4 | 0.00 | 0.00 | 0.00 | 76 | 1009.0 |
| 20260506081009 | 15 | 226 | 3.2 | 6.4 | 0.00 | 0.00 | 0.00 | 76 | 1009.0 |
| 20260506080508 | 15 | 257 | 1.6 | 9.7 | 0.00 | 0.00 | 0.00 | 75 | 1009.0 |
| 20260506073504 | 14 | 212 | 1.6 | 11.3 | 0.00 | 0.00 | 0.00 | 76 | 1009.0 |
| 20260506073016 | 14 | 275 | 1.6 | 9.7 | 0.00 | 0.00 | 0.00 | 75 | 1009.0 |
| 20260506072510 | 14 | 175 | 1.6 | 9.7 | 0.00 | 0.00 | 0.00 | 74 | 1008.9 |
| 20260506072004 | 14 | 275 | 1.6 | 4.8 | 0.00 | 0.00 | 0.00 | 76 | 1008.9 |
| 20260506071533 | 13 | 191 | 1.6 | 4.8 | 0.00 | 0.00 | 0.00 | 76 | 1008.8 |
| 20260506071012 | 13 | 243 | 1.6 | 3.2 | 0.00 | 0.00 | 0.00 | 76 | 1008.8 |
| 20260506070508 | 13 | 242 | 0.0 | 3.2 | 0.00 | 0.00 | 0.00 | 76 | 1008.7 |
| 20260506062512 | 15 | 238 | 0.0 | 3.2 | 0.00 | 0.00 | 0.00 | 71 | 1008.7 |
| 20260506062003 | 15 | 234 | 0.0 | 4.8 | 0.00 | 0.00 | 0.00 | 70 | 1008.6 |
| 20260506061535 | 15 | 225 | 0.0 | 11.3 | 0.00 | 0.00 | 0.00 | 69 | 1008.6 |
| 20260506061010 | 16 | 309 | 0.0 | 11.3 | 0.00 | 0.00 | 0.00 | 68 | 1008.5 |